[[{"header":{"parameterUnit":"m.s-1","parameterCategory":1,"la1":30.2991,"la2":30.254,"lo1":-89.0895,"lo2":-89.0444,"dy":0.0017,"dx":0.0017,"nx":28,"ny":28,"refTime":"2025-06-03T03:00:00:Z","depth":0,"parameterNumber":2,"parameterNumberName":"U-component_of_WINDS"},"data":[0,0,0,0,0,0,0,0,0,0,0,0,0,0,0,0,0,0,0,0,0,0,0,0,0,0,0,0,0,0,0,0,0,0,0,0,0,0,0,0,0,0,0,0,0,0,0,0,0,0,0,0,0,0,0,0,0,0,-6.4298,-6.4298,0,-6.4297,-6.4297,-6.4297,-6.4175,-6.4172,-6.4169,-6.4166,-6.4165,-6.4168,-6.4171,0,0,0,0,0,0,0,0,0,0,0,0,0,-6.4196,-6.4199,-6.4298,-6.4298,-6.4298,-6.4297,-6.4297,-6.4297,-6.4176,-6.4172,-6.4168,-6.4164,-6.4164,-6.4168,-6.4171,0,0,0,0,0,0,0,0,0,0,0,0,0,-6.4222,-6.4199,-6.4298,-6.4237,-6.4232,-6.4297,-6.4297,-6.4297,-6.4177,-6.4172,-6.4167,-6.4163,-6.4163,-6.4168,-6.4172,-6.4295,0,0,-6.4185,-6.4187,0,0,0,0,0,0,0,0,-6.4221,-6.4226,-6.4246,-6.4242,-6.4236,-6.4231,-6.4261,-6.4296,-6.4178,-6.4198,-6.4166,-6.416,-6.4191,-6.4193,-6.4203,-6.4295,-6.4295,-6.4186,-6.4189,-6.419,-6.4192,0,0,0,0,0,0,0,-6.4219,-6.4226,-6.4297,-6.4247,-6.424,-6.4211,-6.4209,-6.4267,-6.4221,-6.4196,-6.4187,-6.4188,-6.4187,-6.4199,-6.4202,-6.4295,-6.4186,-6.419,-6.4192,-6.4194,-6.4488,-6.4493,0,0,0,0,0,0,-6.4226,-6.4225,-6.4297,-6.4297,-6.4216,-6.4216,-6.4215,-6.4238,-6.422,-6.4213,-6.4192,-6.4183,-6.4194,-6.4197,-6.4202,-6.4344,-6.419,-6.4195,-6.4197,-6.4483,-6.4489,-6.4495,0,0,0,0,0,0,-6.4224,-6.4233,-6.4297,-6.4259,-6.4265,-6.4223,-6.425,-6.424,-6.4252,-6.4218,-6.4209,-6.4213,-6.4191,-6.4196,-6.4273,-6.4343,-6.4197,-6.4201,-6.4477,-6.4485,-6.4492,-6.4631,0,0,0,0,0,0,-6.4222,-6.4233,-6.4279,-6.4261,-6.4267,-6.4368,-6.4254,-6.4244,-6.426,-6.4247,-6.4235,-6.4228,-6.4187,-6.4267,-6.4277,-6.4346,-6.4204,-6.447,-6.448,-6.4489,-6.462,-6.4642,-6.4662,0,0,0,0,0,-6.4218,-6.4318,-6.4282,-6.4292,-6.4324,-6.4372,-6.4376,-6.4327,-6.4266,-6.4312,-6.429,-6.4229,-6.4334,-6.4276,-6.4286,-6.4358,-6.4466,-6.4477,-6.4489,-6.461,-6.4638,-6.4661,0,0,0,0,0,0,-6.4346,-6.4315,-6.4274,-6.4371,-6.4376,-6.4352,-6.4408,-6.4358,-6.4379,-6.4366,-6.4304,-6.4303,-6.439,-6.4382,-6.4317,-6.4476,-6.4389,-6.4403,-6.4478,-6.4504,-6.4524,-6.4523,-6.4208,0,0,0,0,0,-6.4385,-6.4427,-6.4398,-6.4486,-6.4491,-6.445,-6.4469,-6.4431,-6.4433,-6.4434,-6.4418,-6.4422,-6.4456,-6.448,-6.4509,-6.4619,-6.4614,-6.4674,-6.4695,-6.4712,-6.4724,-6.4782,-6.4808,-6.4533,-6.4533,-6.4532,0,0,-6.4467,-6.4455,-6.4485,-6.4512,-6.451,-6.4556,-6.4452,-6.4504,-6.4537,-6.4442,-6.4513,-6.4502,-6.4503,-6.4597,-6.4638,-6.4593,-6.48,-6.4727,-6.4741,-6.4744,-6.4796,-6.4822,-6.4846,-6.454,-6.4539,-6.4538,0,0,-6.4638,-6.4634,-6.4707,-6.4708,-6.4708,-6.468,-6.4699,-6.4683,-6.4672,-6.4743,-6.4673,-6.4712,-6.4772,-6.4775,-6.4785,-6.4961,-6.4905,-6.4973,-6.5081,-6.5138,-6.516,-6.5179,-6.5241,-6.5264,-6.4986,-6.4986,-6.4987,0,-6.4739,-6.4804,-6.4751,-6.4808,-6.4822,-6.4739,-6.4813,-6.4817,-6.4827,-6.4838,-6.4789,-6.4863,-6.4858,-6.4951,-6.4994,-6.5006,-6.5024,-6.4973,-6.5161,-6.518,-6.5196,-6.5255,-6.5278,-6.4994,-6.4993,-6.4993,-6.4992,0,-6.4928,-6.4975,-6.5034,-6.5045,-6.5066,-6.5132,-6.5089,-6.5117,-6.5078,-6.5056,-6.513,-6.5122,-6.5148,-6.5168,-6.513,-6.5257,-6.5229,-6.5172,-6.5082,-6.5232,-6.5285,-6.5307,-6.5006,-6.5003,-6.5001,-6.4999,0,0,-6.5176,-6.516,-6.5182,-6.5187,-6.5182,-6.5217,-6.5279,-6.5305,-6.533,-6.5341,-6.5391,-6.5445,-6.5392,-6.5404,-6.5366,-6.5417,-6.5556,-6.5352,-6.5351,-6.5389,-6.5695,-6.5737,-6.5764,-6.552,-6.5524,-6.5527,-6.5694,0,-6.5341,-6.5445,-6.5401,-6.551,-6.5552,-6.5476,-6.553,-6.5534,-6.5516,-6.5549,-6.5529,-6.5568,-6.5496,-6.5502,-6.5549,-6.5529,-6.5616,-6.5517,-6.5566,-6.5568,-6.5566,-6.5792,-6.5836,-6.5994,-6.5715,-6.5719,-6.5721,0,-6.5546,-6.5566,-6.5679,-6.5668,-6.5684,-6.5733,-6.5754,-6.5788,-6.5791,-6.5774,-6.5788,-6.574,-6.5801,-6.5715,-6.5798,-6.5731,-6.5749,-6.5743,-6.5748,-6.5749,-6.5652,-6.5797,-6.6043,-6.6066,-6.5754,-6.5751,-6.5749,0,-6.5715,-6.577,-6.5844,-6.5851,-6.584,-6.5876,-6.5874,-6.5872,-6.5891,-6.591,-6.5921,-6.5948,-6.5962,-6.5984,-6.5944,-6.5885,-6.6033,-6.5943,-6.6021,-6.6022,-6.6053,-6.6051,-6.6303,-6.6069,-6.6068,-6.6068,-6.6067,0,-6.5902,-6.5974,-6.592,-6.5966,-6.6045,-6.5994,-6.6073,-6.6062,-6.6062,-6.6105,-6.6041,-6.6083,-6.6029,-6.6066,-6.6036,-6.6109,-6.6117,-6.6105,-6.6096,-6.6109,-6.6111,-6.6119,-6.6106,-6.6074,-6.6073,-6.6071,-6.607,0,-6.6102,-6.6069,-6.6145,-6.6129,-6.6127,-6.6186,-6.6172,-6.6214,-6.6193,-6.6248,-6.6258,-6.6225,-6.6265,-6.6229,-6.6267,-6.6247,-6.6345,-6.6321,-6.6343,-6.6336,-6.6415,-6.6408,-6.6679,-6.6712,-6.6458,-6.6461,-6.6463,0,-6.6223,-6.6276,-6.6267,-6.6291,-6.6292,-6.6332,-6.6351,-6.6304,-6.6327,-6.6336,-6.6377,-6.6412,-6.6437,-6.6506,-6.6485,-6.6514,-6.649,-6.6583,-6.6493,-6.6506,-6.6489,-6.6486,-6.6491,-6.66,-6.6603,-6.6606,-6.6608,0,-6.644,-6.6421,-6.6451,-6.6477,-6.6502,-6.652,-6.6533,-6.6556,-6.6508,-6.6538,-6.6578,-6.6598,-6.6638,-6.6673,-6.6697,-6.6694,-6.6644,-6.6637,-6.6656,-6.6669,-6.668,-6.6674,-6.6391,-6.663,-6.6628,-6.6626,-6.6625,-6.6624,-6.6603,-6.6647,-6.6647,-6.6684,-6.6689,-6.6703,-6.6742,-6.6726,-6.6759,-6.6787,-6.6758,-6.6808,-6.6811,-6.6837,-6.6841,-6.6879,-6.684,-6.6868,-6.6875,-6.6882,-6.6893,-6.6676,-6.6884,-6.6883,-6.6882,-6.6882,-6.6881,0,-6.6815,-6.6812,-6.6847,-6.6867,-6.6896,-6.6847,-6.6859,-6.6887,-6.6931,-6.6938,-6.6965,-6.7012,-6.7047,-6.703,-6.7061,-6.7095,-6.7073,-6.7104,-6.71,-6.7101,-6.6927,-6.6907,-6.7122,-6.7122,-6.7122,-6.7122,-6.7122,-6.7122,-6.6929,-6.7002,-6.6984,-6.7059,-6.7055,-6.7103,-6.7114,-6.7127,-6.7133,-6.7188,-6.7217,-6.7206,-6.7204,-6.7234,-6.7265,-6.7259,-6.7273,-6.7313,-6.7299,-6.7136,-6.7113,-6.709,-6.707,-6.7317,-6.7317,-6.7468,-6.747,-6.7471]},{"header":{"parameterUnit":"m.s-1","parameterCategory":1,"la1":30.2991,"la2":30.254,"lo1":-89.0895,"lo2":-89.0444,"dy":0.0017,"dx":0.0017,"nx":28,"ny":28,"refTime":"2025-06-03T03:00:00:Z","depth":0,"parameterNumber":3,"parameterNumberName":"V-component_of_WINDS"},"data":[0,0,0,0,0,0,0,0,0,0,0,0,0,0,0,0,0,0,0,0,0,0,0,0,0,0,0,0,0,0,0,0,0,0,0,0,0,0,0,0,0,0,0,0,0,0,0,0,0,0,0,0,0,0,0,0,0,0,1.8656,1.8657,0,1.8695,1.8696,1.8696,1.8773,1.8774,1.8776,1.8777,1.8811,1.881,1.881,0,0,0,0,0,0,0,0,0,0,0,0,0,1.8644,1.8644,1.8656,1.8657,1.8657,1.8695,1.8696,1.8696,1.8772,1.8774,1.8776,1.8778,1.8811,1.881,1.881,0,0,0,0,0,0,0,0,0,0,0,0,0,1.8663,1.8644,1.8656,1.87,1.8704,1.8695,1.8696,1.8696,1.8772,1.8774,1.8777,1.8779,1.8811,1.881,1.881,1.8759,0,0,1.8807,1.8807,0,0,0,0,0,0,0,0,1.8662,1.8663,1.8693,1.8697,1.8702,1.8732,1.8704,1.8717,1.8771,1.8746,1.8777,1.878,1.8782,1.8784,1.8786,1.876,1.8762,1.8807,1.8807,1.8806,1.8806,0,0,0,0,0,0,0,1.866,1.8662,1.8672,1.8693,1.8699,1.8716,1.8722,1.8707,1.8751,1.8748,1.8754,1.8758,1.8785,1.8787,1.8787,1.8762,1.8807,1.8806,1.8806,1.8806,1.8699,1.8697,0,0,0,0,0,0,1.8653,1.866,1.867,1.8673,1.8687,1.8715,1.8721,1.872,1.8751,1.8758,1.8756,1.8761,1.8787,1.8788,1.8789,1.8733,1.8806,1.8806,1.8805,1.8701,1.8698,1.8696,0,0,0,0,0,0,1.8653,1.8653,1.8669,1.8668,1.8672,1.8713,1.8711,1.8719,1.8721,1.8757,1.8765,1.875,1.8789,1.879,1.8767,1.8735,1.8805,1.8804,1.8704,1.87,1.8697,1.8619,0,0,0,0,0,0,1.8652,1.8653,1.8635,1.8667,1.8671,1.8647,1.8709,1.8718,1.872,1.8728,1.8753,1.8759,1.8791,1.8767,1.8766,1.8735,1.8804,1.8707,1.8702,1.8698,1.8624,1.8613,1.8603,0,0,0,0,0,1.8651,1.8609,1.8633,1.8634,1.865,1.8645,1.8647,1.8685,1.8717,1.8699,1.8722,1.8759,1.8739,1.8764,1.8763,1.8731,1.8709,1.8704,1.8698,1.8629,1.8615,1.8603,0,0,0,0,0,0,1.8569,1.8614,1.8641,1.8609,1.8623,1.8658,1.8636,1.8669,1.8673,1.8679,1.8725,1.873,1.8701,1.8714,1.8742,1.8685,1.873,1.8724,1.8677,1.8664,1.8654,1.8651,1.8803,0,0,0,0,0,1.8548,1.8542,1.8581,1.8548,1.8554,1.8594,1.8593,1.8622,1.8637,1.8643,1.8664,1.8676,1.8673,1.8669,1.8668,1.8627,1.8634,1.8605,1.8594,1.8585,1.8579,1.856,1.8547,1.8678,1.8678,1.8678,0,0,1.8503,1.8527,1.8519,1.8533,1.8547,1.8538,1.8598,1.8586,1.858,1.864,1.862,1.8637,1.8653,1.8621,1.8608,1.8631,1.8545,1.8579,1.8571,1.857,1.8553,1.854,1.8529,1.8675,1.8675,1.8676,0,0,1.8416,1.8434,1.841,1.8423,1.8445,1.8472,1.8466,1.8497,1.851,1.8492,1.8537,1.853,1.8523,1.8533,1.8538,1.8458,1.8491,1.8456,1.84,1.838,1.837,1.8361,1.8333,1.8322,1.845,1.845,1.845,0,1.8357,1.8348,1.8392,1.8379,1.8383,1.844,1.8415,1.8426,1.8445,1.8446,1.8472,1.8467,1.8481,1.8453,1.8434,1.8435,1.8429,1.8452,1.8368,1.836,1.8352,1.8325,1.8315,1.8445,1.8446,1.8446,1.8447,0,1.8274,1.8267,1.8244,1.8264,1.8266,1.8247,1.8288,1.8284,1.8313,1.8337,1.8317,1.8338,1.8342,1.8338,1.8365,1.8313,1.8328,1.836,1.8406,1.8334,1.831,1.83,1.8439,1.8441,1.8442,1.8443,0,0,1.8135,1.8182,1.8173,1.8183,1.8213,1.8207,1.819,1.8197,1.8194,1.8205,1.8192,1.8186,1.8218,1.8222,1.8251,1.8234,1.817,1.8269,1.827,1.825,1.8115,1.809,1.8077,1.8193,1.8191,1.819,1.8114,0,1.8055,1.8031,1.8072,1.8037,1.8032,1.8087,1.8072,1.8088,1.811,1.8107,1.8131,1.8126,1.8168,1.8171,1.8157,1.818,1.8143,1.8187,1.818,1.8179,1.8174,1.8065,1.8038,1.7965,1.8104,1.8103,1.8102,0,1.7958,1.7968,1.7933,1.7967,1.7966,1.7952,1.7963,1.796,1.7978,1.7996,1.8002,1.8038,1.8023,1.8068,1.8048,1.8077,1.8076,1.8088,1.8086,1.8086,1.8136,1.8062,1.7943,1.7932,1.8087,1.8088,1.8089,0,1.7861,1.7865,1.7846,1.7853,1.7891,1.788,1.7895,1.7916,1.7918,1.7927,1.7929,1.7934,1.7937,1.7941,1.7976,1.8006,1.7952,1.8,1.7965,1.7964,1.795,1.7951,1.7829,1.795,1.7951,1.7951,1.7951,0,1.7767,1.7744,1.7803,1.7791,1.7767,1.7814,1.7788,1.7808,1.7827,1.782,1.7867,1.7858,1.7906,1.7902,1.793,1.7909,1.791,1.7923,1.793,1.7919,1.7917,1.7919,1.7924,1.7948,1.7949,1.7949,1.795,0,1.7653,1.7692,1.7675,1.7713,1.7723,1.7703,1.7735,1.7725,1.7752,1.7741,1.7741,1.7781,1.778,1.7816,1.7821,1.784,1.7806,1.7823,1.7801,1.7806,1.7769,1.7772,1.7644,1.763,1.776,1.7759,1.7758,0,1.7591,1.7575,1.7613,1.7612,1.7625,1.7623,1.7627,1.7672,1.7673,1.7695,1.7682,1.7685,1.7689,1.7684,1.7712,1.7717,1.7734,1.7689,1.7734,1.7723,1.7733,1.7734,1.7732,1.7679,1.7677,1.7676,1.7675,0,1.7476,1.7497,1.7501,1.7512,1.7515,1.7525,1.7538,1.7534,1.7584,1.7583,1.7583,1.7587,1.7594,1.7595,1.7605,1.7619,1.7655,1.766,1.7653,1.764,1.7628,1.7634,1.7774,1.7663,1.7664,1.7665,1.7665,1.7666,1.7387,1.7376,1.7401,1.7404,1.7419,1.7431,1.7424,1.7451,1.7452,1.7463,1.7489,1.7485,1.7505,1.7523,1.7534,1.7531,1.7553,1.7541,1.7538,1.7535,1.7528,1.7629,1.7532,1.7533,1.7533,1.7533,1.7534,0,1.7275,1.7294,1.7297,1.7315,1.7317,1.7354,1.737,1.7369,1.7366,1.7383,1.7387,1.7388,1.739,1.742,1.7426,1.7418,1.7434,1.7418,1.7419,1.7421,1.7508,1.7514,1.7405,1.7405,1.7405,1.7405,1.7405,1.7405,1.7217,1.72,1.7224,1.7216,1.7235,1.7234,1.724,1.7251,1.7265,1.7264,1.7268,1.7288,1.731,1.7319,1.7322,1.7331,1.7331,1.7309,1.7323,1.7403,1.7415,1.7427,1.7433,1.7308,1.7308,1.7237,1.7236,1.7236]}]]